Plymouth, MA

3:37 PM EDT on July 21, 2017 (GMT -0400)
Plymouth Municipal

Weather History for KPYM - February, 2014

Change the Weather History Date:

Thursday, February 20, 2014

  Actual Average Record
Temperature  
Mean Temperature 40 °F -  
Max Temperature 46 °F 43 °F 63 °F (1981)
Min Temperature 33 °F 21 °F 1 °F (1966)
Degree Days  
Heating Degree Days 26    
Moisture  
Dew Point 26 °F    
Average Humidity 67    
Maximum Humidity 89    
Minimum Humidity 32    
Precipitation  
Precipitation 0.12 in - - ()
Sea Level Pressure  
Sea Level Pressure 30.12 in    
Wind  
Wind Speed 8 mph (WSW)    
Max Wind Speed 13 mph    
Max Gust Speed -    
Visibility 9 miles    
Events Rain    
Averages and records for this station are not official NWS values.
T = Trace of Precipitation, MM = Missing Value Source: NWS Daily Summary

Daily Weather History Graph

Daily Weather History Graph

Search for Another Location

Airport or City:

Trip Planner

Search our weather history database for the weather conditions in past years. The results will help you decide how hot, cold, wet, or windy it might be!

Date:

Astronomy

Feb. 20, 2014 Rise Set
Actual Time 6:31 AM EST 5:22 PM EST
Civil Twilight 6:03 AM EST 5:50 PM EST
Nautical Twilight 5:30 AM EST 6:23 PM EST
Astronomical Twilight 4:58 AM EST 6:55 PM EST
Moon 11:19 PM EST (2/20) 9:06 AM EST (2/20)
Length of Visible Light 11h 47m
Length of Day
10h 50m
Waning Gibbous, 71% of the Moon is Illuminated
Feb 20
Waning Gibbous
Feb 22
Last Quarter
Mar 1
New
Mar 8
First Quarter
Mar 16
Full

Hourly Weather History & Observations

Time (EST) Temp. Windchill Dew Point Humidity Pressure Visibility Wind Dir Wind Speed Gust Speed Precip Events Conditions
12:28 AM 33.1 °F 25.5 °F 30.0 °F 89% 29.84 in 7.0 mi WNW 9.2 mph - N/A   Mostly Cloudy
12:42 AM 33.1 °F 26.1 °F 28.9 °F 85% 29.85 in 7.0 mi West 8.1 mph - N/A   Mostly Cloudy
12:52 AM 33.1 °F 25.5 °F 28.9 °F 85% 29.87 in 6.0 mi West 9.2 mph - N/A   Scattered Clouds
1:52 AM 33.1 °F 26.1 °F 28.9 °F 85% 29.92 in 8.0 mi West 8.1 mph - N/A   Clear
2:52 AM 34.0 °F 26.6 °F 30.0 °F 85% 29.96 in 10.0 mi West 9.2 mph - N/A   Clear
3:52 AM 33.1 °F 25.5 °F 28.9 °F 85% 30.00 in 10.0 mi WSW 9.2 mph - N/A   Clear
4:52 AM 34.0 °F 25.5 °F 28.9 °F 82% 30.06 in 10.0 mi West 11.5 mph - N/A   Clear
5:52 AM 33.1 °F 25.5 °F 28.0 °F 82% 30.09 in 10.0 mi WSW 9.2 mph - N/A   Clear
6:52 AM 33.1 °F 27.7 °F 28.0 °F 82% 30.12 in 8.0 mi West 5.8 mph - N/A   Clear
7:52 AM 35.1 °F 30.1 °F 28.0 °F 76% 30.17 in 10.0 mi West 5.8 mph - N/A   Clear
8:52 AM 37.0 °F 30.4 °F 28.0 °F 70% 30.19 in 10.0 mi West 9.2 mph - N/A   Clear
9:52 AM 39.9 °F 33.9 °F 27.0 °F 60% 30.20 in 10.0 mi West 9.2 mph - N/A   Clear
10:52 AM 42.1 °F 38.4 °F 24.1 °F 49% 30.19 in 10.0 mi West 5.8 mph - N/A   Clear
11:52 AM 43.0 °F 38.8 °F 25.0 °F 49% 30.19 in 10.0 mi WSW 6.9 mph - N/A   Clear
12:52 PM 45.0 °F 41.2 °F 21.9 °F 40% 30.17 in 10.0 mi SW 6.9 mph - N/A   Clear
1:52 PM 45.0 °F 38.9 °F 21.0 °F 39% 30.19 in 10.0 mi WSW 12.7 mph - N/A   Clear
2:52 PM 44.1 °F 39.0 °F 19.9 °F 38% 30.20 in 10.0 mi WSW 9.2 mph - N/A   Clear
3:52 PM 46.9 °F - 18.0 °F 32% 30.19 in 10.0 mi SSW 5.8 mph - N/A   Clear
4:52 PM 44.1 °F 40.8 °F 19.9 °F 38% 30.22 in 10.0 mi SSW 5.8 mph - N/A   Clear
5:52 PM 41.0 °F 39.0 °F 19.0 °F 41% 30.21 in 10.0 mi Variable 3.5 mph - N/A   Clear
6:52 PM 39.0 °F 35.7 °F 21.0 °F 49% 30.19 in 10.0 mi South 4.6 mph - N/A   Scattered Clouds
7:52 PM 36.0 °F 33.3 °F 26.1 °F 67% 30.22 in 10.0 mi WSW 3.5 mph - N/A   Overcast
8:52 PM 35.1 °F - 27.0 °F 72% 30.23 in 10.0 mi Calm Calm - N/A   Overcast
9:52 PM 33.1 °F - 28.9 °F 85% 30.22 in 7.0 mi Calm Calm - 0.01 in Rain Light Rain
10:52 PM 34.0 °F 31.0 °F 30.0 °F 85% 30.19 in 6.0 mi NNE 3.5 mph - 0.04 in Rain Light Rain
11:52 PM 34.0 °F 28.8 °F 30.0 °F 85% 30.17 in 10.0 mi ENE 5.8 mph - 0.07 in   Overcast